[[{"header":{"parameterUnit":"m.s-1","parameterCategory":1,"la1":30.2991,"la2":30.254,"lo1":-89.0895,"lo2":-89.0444,"dy":0.0017,"dx":0.0017,"nx":28,"ny":28,"refTime":"2025-06-10T21:00:00:Z","depth":0,"parameterNumber":2,"parameterNumberName":"U-component_of_WINDS"},"data":[0,0,0,0,0,0,0,0,0,0,0,0,0,0,0,0,0,0,0,0,0,0,0,0,0,0,0,0,0,0,0,0,0,0,0,0,0,0,0,0,0,0,0,0,0,0,0,0,0,0,0,0,0,0,0,0,0,0,-3.8658,-3.8657,0,-3.8544,-3.8543,-3.8542,-3.8464,-3.8464,-3.8463,-3.8463,-3.8335,-3.8332,-3.8329,0,0,0,0,0,0,0,0,0,0,0,0,0,-3.8797,-3.8795,-3.8658,-3.8657,-3.8655,-3.8544,-3.8543,-3.8541,-3.8464,-3.8464,-3.8463,-3.8463,-3.8336,-3.8333,-3.8329,0,0,0,0,0,0,0,0,0,0,0,0,0,-3.8715,-3.8794,-3.8658,-3.8604,-3.8598,-3.8545,-3.8543,-3.8541,-3.8465,-3.8464,-3.8463,-3.8462,-3.8337,-3.8333,-3.8329,-3.8318,0,0,-3.8315,-3.8314,0,0,0,0,0,0,0,0,-3.872,-3.871,-3.8613,-3.8608,-3.8601,-3.8518,-3.8545,-3.8466,-3.8465,-3.8515,-3.8463,-3.8462,-3.8396,-3.8387,-3.8367,-3.8312,-3.8306,-3.8315,-3.8312,-3.8311,-3.8309,0,0,0,0,0,0,0,-3.8725,-3.8714,-3.8613,-3.8612,-3.8604,-3.8581,-3.8569,-3.8529,-3.8461,-3.851,-3.8505,-3.8493,-3.8392,-3.8371,-3.8363,-3.8304,-3.8315,-3.8311,-3.8309,-3.8307,-3.8228,-3.8228,0,0,0,0,0,0,-3.8741,-3.872,-3.8616,-3.8609,-3.866,-3.8579,-3.8565,-3.8545,-3.8461,-3.8448,-3.8493,-3.849,-3.8379,-3.8368,-3.8358,-3.8337,-3.8311,-3.8306,-3.8304,-3.8227,-3.8228,-3.8229,0,0,0,0,0,0,-3.8745,-3.8733,-3.8621,-3.8663,-3.8647,-3.8578,-3.8556,-3.8543,-3.8522,-3.8448,-3.8435,-3.8485,-3.8378,-3.8364,-3.8328,-3.8331,-3.8304,-3.8301,-3.8227,-3.8228,-3.8228,-3.8295,0,0,0,0,0,0,-3.8749,-3.8735,-3.8733,-3.8664,-3.8645,-3.8597,-3.8556,-3.8542,-3.8516,-3.851,-3.8437,-3.8424,-3.8376,-3.8335,-3.8323,-3.8325,-3.8297,-3.8226,-3.8227,-3.8228,-3.8293,-3.8298,-3.8303,0,0,0,0,0,-3.8754,-3.8755,-3.8733,-3.8721,-3.8642,-3.8597,-3.8586,-3.8534,-3.8517,-3.8512,-3.8464,-3.8427,-3.8333,-3.8332,-3.8318,-3.8318,-3.8226,-3.8227,-3.8228,-3.829,-3.8297,-3.8303,0,0,0,0,0,0,-3.8824,-3.8745,-3.872,-3.8699,-3.8656,-3.8585,-3.8578,-3.8544,-3.8502,-3.8497,-3.8431,-3.8415,-3.8384,-3.8347,-3.8347,-3.83,-3.8274,-3.8273,-3.8326,-3.8332,-3.8337,-3.8346,-3.8293,0,0,0,0,0,-3.8837,-3.8811,-3.8742,-3.873,-3.871,-3.8648,-3.8626,-3.859,-3.8541,-3.8521,-3.847,-3.8421,-3.8379,-3.8353,-3.8312,-3.8286,-3.8267,-3.8279,-3.8284,-3.8289,-3.8288,-3.8268,-3.8271,-3.8232,-3.8232,-3.8232,0,0,-3.8864,-3.8817,-3.8805,-3.8743,-3.8705,-3.8675,-3.8633,-3.8604,-3.858,-3.8515,-3.8478,-3.8439,-3.8378,-3.8346,-3.833,-3.8314,-3.8295,-3.8291,-3.8295,-3.8292,-3.8269,-3.8273,-3.8276,-3.8233,-3.8233,-3.8233,0,0,-3.8897,-3.8861,-3.8846,-3.8809,-3.8753,-3.8711,-3.8707,-3.864,-3.8612,-3.8575,-3.8524,-3.8492,-3.8424,-3.8382,-3.8351,-3.8365,-3.8327,-3.8352,-3.838,-3.8361,-3.8364,-3.8366,-3.8368,-3.837,-3.8352,-3.8352,-3.8352,0,-3.8936,-3.8894,-3.8841,-3.8815,-3.8787,-3.873,-3.8711,-3.8676,-3.8608,-3.8588,-3.8573,-3.8484,-3.8439,-3.8395,-3.8398,-3.8376,-3.8366,-3.8361,-3.8369,-3.837,-3.8371,-3.8372,-3.8373,-3.8355,-3.8355,-3.8355,-3.8354,0,-3.8943,-3.8914,-3.8907,-3.8846,-3.8817,-3.8795,-3.8735,-3.8711,-3.8676,-3.8634,-3.8593,-3.8537,-3.8482,-3.8468,-3.8433,-3.8417,-3.8409,-3.8382,-3.8354,-3.838,-3.8379,-3.8379,-3.836,-3.8359,-3.8358,-3.8357,0,0,-3.9018,-3.8927,-3.8926,-3.8896,-3.8828,-3.8802,-3.8775,-3.8724,-3.8703,-3.8656,-3.8629,-3.857,-3.8544,-3.851,-3.8468,-3.8451,-3.8461,-3.8425,-3.8422,-3.8432,-3.8435,-3.8455,-3.8457,-3.8435,-3.8435,-3.8435,-3.8439,0,-3.9039,-3.8993,-3.8943,-3.8911,-3.8881,-3.8824,-3.8799,-3.8752,-3.8712,-3.8676,-3.8628,-3.8587,-3.8558,-3.8536,-3.8517,-3.8464,-3.846,-3.8463,-3.8404,-3.8403,-3.8421,-3.8457,-3.8479,-3.8486,-3.8439,-3.8439,-3.8439,0,-3.9059,-3.9019,-3.8985,-3.8918,-3.8903,-3.8883,-3.8829,-3.8798,-3.8741,-3.8712,-3.8672,-3.8628,-3.859,-3.8567,-3.8511,-3.8514,-3.8486,-3.8456,-3.8454,-3.8446,-3.8422,-3.8448,-3.8488,-3.8488,-3.8438,-3.8438,-3.8438,0,-3.9115,-3.9051,-3.9022,-3.8998,-3.892,-3.8906,-3.8871,-3.8815,-3.8786,-3.8737,-3.8717,-3.8663,-3.8634,-3.859,-3.853,-3.852,-3.8479,-3.8452,-3.845,-3.8451,-3.8444,-3.8445,-3.8478,-3.8428,-3.8428,-3.8428,-3.8428,0,-3.9143,-3.9124,-3.9046,-3.9028,-3.9003,-3.8944,-3.8919,-3.8878,-3.8828,-3.8797,-3.8742,-3.8713,-3.8637,-3.8597,-3.8549,-3.8508,-3.8495,-3.8466,-3.8454,-3.8471,-3.8474,-3.8451,-3.8449,-3.8428,-3.8428,-3.8428,-3.8428,0,-3.9202,-3.9149,-3.9113,-3.9042,-3.9023,-3.9008,-3.8944,-3.8921,-3.8876,-3.8838,-3.8825,-3.8753,-3.8702,-3.8639,-3.8567,-3.8534,-3.8497,-3.8479,-3.8518,-3.8511,-3.8512,-3.8512,-3.853,-3.8528,-3.8482,-3.8482,-3.8483,0,-3.9223,-3.9208,-3.9135,-3.9113,-3.9081,-3.9045,-3.9016,-3.8955,-3.8925,-3.8858,-3.8842,-3.8789,-3.8743,-3.8664,-3.8601,-3.8545,-3.8523,-3.8533,-3.8514,-3.8531,-3.852,-3.8522,-3.8518,-3.8538,-3.8539,-3.854,-3.854,0,-3.9266,-3.924,-3.9203,-3.9155,-3.9123,-3.9081,-3.9037,-3.902,-3.8948,-3.8917,-3.8867,-3.8832,-3.8759,-3.8705,-3.864,-3.8598,-3.8555,-3.8547,-3.8543,-3.856,-3.8583,-3.8568,-3.853,-3.8547,-3.8546,-3.8546,-3.8545,-3.8545,-3.9304,-3.9287,-3.9234,-3.9192,-3.9153,-3.9112,-3.9087,-3.904,-3.8999,-3.8938,-3.8903,-3.8853,-3.879,-3.87,-3.8659,-3.8615,-3.8599,-3.8595,-3.8593,-3.8592,-3.8597,-3.8591,-3.8603,-3.8602,-3.8602,-3.8602,-3.8602,0,-3.9343,-3.9305,-3.9268,-3.9209,-3.9176,-3.9143,-3.9091,-3.9063,-3.9022,-3.897,-3.8927,-3.8866,-3.8812,-3.8745,-3.8685,-3.8662,-3.8641,-3.8648,-3.8649,-3.8639,-3.8615,-3.8624,-3.8666,-3.8666,-3.8666,-3.8666,-3.8666,-3.8666,-3.9359,-3.9327,-3.9295,-3.924,-3.9201,-3.9156,-3.9129,-3.9088,-3.9047,-3.8984,-3.8941,-3.8899,-3.8838,-3.8773,-3.8719,-3.87,-3.8679,-3.8693,-3.8667,-3.8647,-3.8641,-3.8636,-3.8643,-3.8689,-3.8689,-3.8694,-3.8694,-3.8694]},{"header":{"parameterUnit":"m.s-1","parameterCategory":1,"la1":30.2991,"la2":30.254,"lo1":-89.0895,"lo2":-89.0444,"dy":0.0017,"dx":0.0017,"nx":28,"ny":28,"refTime":"2025-06-10T21:00:00:Z","depth":0,"parameterNumber":3,"parameterNumberName":"V-component_of_WINDS"},"data":[0,0,0,0,0,0,0,0,0,0,0,0,0,0,0,0,0,0,0,0,0,0,0,0,0,0,0,0,0,0,0,0,0,0,0,0,0,0,0,0,0,0,0,0,0,0,0,0,0,0,0,0,0,0,0,0,0,0,-5.0616,-5.062,0,-5.0955,-5.0959,-5.0963,-5.098,-5.0976,-5.0972,-5.0968,-5.1315,-5.1328,-5.1341,0,0,0,0,0,0,0,0,0,0,0,0,0,-4.9987,-4.9999,-5.0616,-5.062,-5.0624,-5.0955,-5.0959,-5.0964,-5.098,-5.0975,-5.0971,-5.0966,-5.1311,-5.1326,-5.1342,0,0,0,0,0,0,0,0,0,0,0,0,0,-5.0287,-5.0003,-5.0615,-5.0672,-5.0681,-5.0954,-5.0959,-5.0965,-5.0981,-5.0975,-5.0969,-5.0964,-5.1306,-5.1325,-5.1344,-5.1583,0,0,-5.1403,-5.1412,0,0,0,0,0,0,0,0,-5.027,-5.031,-5.066,-5.0669,-5.0679,-5.0919,-5.0865,-5.1172,-5.0983,-5.0867,-5.0968,-5.0961,-5.1188,-5.1217,-5.1294,-5.1599,-5.1614,-5.1405,-5.1417,-5.1425,-5.1431,0,0,0,0,0,0,0,-5.0249,-5.0295,-5.075,-5.0665,-5.0677,-5.0683,-5.0719,-5.0923,-5.1057,-5.0877,-5.0879,-5.0919,-5.1192,-5.1275,-5.1302,-5.1619,-5.1405,-5.1422,-5.1434,-5.1441,-5.2144,-5.2151,0,0,0,0,0,0,-5.0217,-5.0278,-5.0739,-5.076,-5.0456,-5.0699,-5.0739,-5.0848,-5.1055,-5.1081,-5.0924,-5.0918,-5.1245,-5.1279,-5.1314,-5.161,-5.1425,-5.1443,-5.1454,-5.2137,-5.2146,-5.2153,0,0,0,0,0,0,-5.0203,-5.0258,-5.0726,-5.052,-5.058,-5.0716,-5.0838,-5.0858,-5.094,-5.109,-5.1114,-5.0983,-5.1241,-5.1287,-5.1517,-5.1622,-5.1452,-5.147,-5.2129,-5.214,-5.2149,-5.2201,0,0,0,0,0,0,-5.0185,-5.0253,-5.0343,-5.0522,-5.0591,-5.0921,-5.0845,-5.0869,-5.0974,-5.097,-5.1152,-5.1177,-5.124,-5.1488,-5.1537,-5.1646,-5.1485,-5.212,-5.2134,-5.2146,-5.219,-5.2212,-5.2231,0,0,0,0,0,-5.0162,-5.0342,-5.0347,-5.0403,-5.0706,-5.0927,-5.0966,-5.1036,-5.0982,-5.1075,-5.1173,-5.1171,-5.1604,-5.1512,-5.1566,-5.1683,-5.2113,-5.213,-5.2145,-5.2181,-5.2208,-5.223,0,0,0,0,0,0,-5.0169,-5.0366,-5.0374,-5.0617,-5.0756,-5.0929,-5.1047,-5.1061,-5.1217,-5.1207,-5.1287,-5.1329,-5.1557,-5.1644,-5.1538,-5.1928,-5.1853,-5.188,-5.1862,-5.1888,-5.1908,-5.188,-5.1501,0,0,0,0,0,-5.02,-5.0362,-5.0526,-5.0725,-5.0794,-5.091,-5.1008,-5.1051,-5.1197,-5.1255,-5.1369,-5.1512,-5.1681,-5.179,-5.1953,-5.2205,-5.2247,-5.2313,-5.2333,-5.2349,-5.237,-5.2514,-5.2546,-5.2205,-5.2205,-5.2205,0,0,-5.0263,-5.0391,-5.0487,-5.073,-5.0841,-5.1009,-5.0958,-5.1136,-5.1262,-5.1282,-5.1507,-5.1597,-5.1762,-5.2005,-5.2118,-5.2084,-5.2475,-5.2369,-5.238,-5.2394,-5.2534,-5.2566,-5.2594,-5.2216,-5.2214,-5.2212,0,0,-5.0463,-5.0576,-5.0755,-5.0871,-5.1042,-5.112,-5.1163,-5.1338,-5.1399,-5.1626,-5.1647,-5.1799,-5.2087,-5.2205,-5.2303,-5.2559,-5.2564,-5.261,-5.2713,-5.2852,-5.2879,-5.2903,-5.2995,-5.3027,-5.2632,-5.2632,-5.2633,0,-5.0518,-5.077,-5.0845,-5.1026,-5.1133,-5.1163,-5.1348,-5.1456,-5.1672,-5.1747,-5.1707,-5.2074,-5.2187,-5.246,-5.2523,-5.2601,-5.2655,-5.2587,-5.2869,-5.2894,-5.2918,-5.3006,-5.3041,-5.2637,-5.2636,-5.2636,-5.2635,0,-5.0832,-5.1008,-5.1133,-5.1343,-5.1466,-5.1647,-5.1752,-5.1867,-5.1902,-5.1985,-5.2219,-5.2358,-5.2552,-5.2621,-5.2655,-5.2901,-5.2875,-5.2852,-5.2777,-5.2953,-5.3038,-5.3073,-5.2643,-5.2642,-5.264,-5.2639,0,0,-5.1037,-5.1293,-5.1338,-5.1436,-5.1633,-5.177,-5.1957,-5.2148,-5.2246,-5.2398,-5.2556,-5.2804,-5.2786,-5.2897,-5.2946,-5.3069,-5.3265,-5.3031,-5.3037,-5.3069,-5.3548,-5.3562,-5.36,-5.3273,-5.3279,-5.3285,-5.3534,0,-5.1257,-5.1586,-5.1664,-5.1947,-5.2112,-5.2149,-5.2311,-5.2451,-5.2535,-5.269,-5.2784,-5.2958,-5.292,-5.2988,-5.3112,-5.3215,-5.3362,-5.3199,-5.3421,-5.3428,-5.3375,-5.3644,-5.3658,-5.3886,-5.3567,-5.3573,-5.3577,0,-5.1555,-5.1717,-5.2016,-5.2198,-5.227,-5.2414,-5.2599,-5.2746,-5.2908,-5.2962,-5.3091,-5.313,-5.3328,-5.3248,-5.3523,-5.341,-5.3508,-5.3573,-5.3584,-5.3604,-5.351,-5.367,-5.396,-5.3993,-5.363,-5.3626,-5.3622,0,-5.1674,-5.1967,-5.2185,-5.2269,-5.2485,-5.2586,-5.2681,-5.2838,-5.295,-5.3114,-5.3188,-5.3372,-5.3472,-5.3615,-5.3705,-5.3638,-5.3974,-5.39,-5.4024,-5.4022,-5.4088,-5.4082,-5.4396,-5.4156,-5.4156,-5.4155,-5.4154,0,-5.191,-5.2092,-5.2242,-5.2375,-5.2583,-5.2674,-5.2877,-5.2973,-5.3113,-5.3268,-5.3313,-5.3458,-5.3569,-5.373,-5.3802,-5.4021,-5.4066,-5.4116,-5.4132,-5.411,-5.4103,-5.4171,-5.4156,-5.4164,-5.4162,-5.4161,-5.4159,0,-5.2074,-5.2182,-5.2422,-5.2611,-5.2663,-5.2807,-5.297,-5.3103,-5.3193,-5.3389,-5.3441,-5.3581,-5.3774,-5.388,-5.4121,-5.417,-5.4414,-5.4424,-5.4359,-5.4365,-5.4483,-5.447,-5.4848,-5.4903,-5.4629,-5.4632,-5.4634,0,-5.2214,-5.2356,-5.2562,-5.267,-5.2768,-5.2941,-5.3057,-5.3156,-5.3275,-5.3476,-5.3586,-5.3783,-5.3944,-5.4252,-5.4376,-5.4563,-5.4576,-5.4697,-5.4603,-5.4579,-5.4576,-5.4565,-5.4581,-5.471,-5.4713,-5.4715,-5.4716,0,-5.2453,-5.2502,-5.2668,-5.2856,-5.2995,-5.3147,-5.3298,-5.3384,-5.3508,-5.3641,-5.3841,-5.3967,-5.4217,-5.4412,-5.4611,-5.4711,-5.4736,-5.4746,-5.4785,-5.4761,-5.4717,-5.4742,-5.44,-5.4735,-5.4733,-5.4732,-5.4731,-5.473,-5.2609,-5.2738,-5.2905,-5.3091,-5.3216,-5.3358,-5.3494,-5.3604,-5.3772,-5.3983,-5.4033,-5.4244,-5.441,-5.4679,-5.4786,-5.4954,-5.4931,-5.4986,-5.5,-5.5011,-5.5015,-5.4695,-5.4991,-5.4991,-5.499,-5.499,-5.499,0,-5.2848,-5.296,-5.3131,-5.3342,-5.349,-5.3505,-5.3675,-5.3797,-5.3983,-5.4136,-5.4297,-5.4529,-5.4721,-5.4865,-5.5062,-5.5169,-5.5186,-5.5217,-5.5208,-5.5231,-5.5025,-5.4971,-5.5201,-5.5201,-5.5201,-5.5201,-5.5201,-5.5201,-5.299,-5.321,-5.3281,-5.3566,-5.3677,-5.3885,-5.3981,-5.4114,-5.4238,-5.4495,-5.4656,-5.4749,-5.4901,-5.5111,-5.5289,-5.5327,-5.5396,-5.5427,-5.5465,-5.5268,-5.5245,-5.5224,-5.5174,-5.5442,-5.5442,-5.5657,-5.5659,-5.5661]}]]